034  
ASUS41 KLWX 230210  
RWRLWX  
 
REGIONAL WEATHER ROUNDUP  
NATIONAL WEATHER SERVICE BALTIMORE MD/WASHINGTON DC  
900 PM EST THU FEB 22 2024  
 
NOTE: "FAIR" INDICATES FEW OR NO CLOUDS BELOW 12,000 FEET  
WITH NO SIGNIFICANT WEATHER AND/OR S TO VISIBILITY
.  
TC=TEMPERATURE CELSIUS  
 
* =NON NWS SITE. STATION DOES NOT REPORT PRECIPITATION (E.G. RAIN,  
SNOW, ETC.), THUNDER, OR FOG.
 
 
DCZ001-MDZ009-015-VAZ040>042-051-053>054-230300-  
WASHINGTON METRO  
 
CITY SKY/WX TMP DP RH WIND PRES REMARKS
 
WASHINGTON NAT NOT AVBL  
DULLES NOT AVBL  
ANDREWS AFB MOCLDY 44 38 79 SE6 29.65F  
FT BELVOIR MOCLDY 47 38 71 SE3 29.64F  
QUANTICO MOCLDY 49 41 74 S5 29.68F  
 

 
 
MDZ006>007-011-014-230300-  
BALTIMORE METRO  
 
CITY SKY/WX TMP DP RH WIND PRES REMARKS
 
BWI AIRPORT NOT AVBL  
BALT INNER HAR N/A 48 40 73 MISG 29.70F  
ANNAPOLIS MOCLDY 46 40 79 SE10 29.68F  
 

 
 
MDZ012-015-019>023-230300-  
MARYLAND EASTERN SHORE  
 
CITY SKY/WX TMP DP RH WIND PRES REMARKS
 
OCEAN CITY CLOUDY 48 38 68 SW9 29.77F  
SALISBURY NOT AVBL  
 

 
 
MDZ017>025-230300-  
SOUTHERN MARYLAND  
 
CITY SKY/WX TMP DP RH WIND PRES REMARKS
 
PATUXENT RIVER MOCLDY 52 38 58 S10 29.69F  
ST INIGOES MOCLDY 49 40 71 S10 29.70F  
 

 
 
MDZ003>005-230300-  
NORTH CENTRAL MARYLAND  
 
CITY SKY/WX TMP DP RH WIND PRES REMARKS
 
FREDERICK* NOT AVBL  
HAGERSTOWN APT NOT AVBL  
WESTMINSTER* NOT AVBL  
 

 
 
MDZ501>502-230300-  
WESTERN MARYLAND  
 
CITY SKY/WX TMP DP RH WIND PRES REMARKS
 
OAKLAND* NOT AVBL  
CUMBERLAND* NOT AVBL  
 

 
 
VAZ025>031-230300-  
SHENANDOAH VALLEY  
 
CITY SKY/WX TMP DP RH WIND PRES REMARKS
 
WINCHESTER* NOT AVBL  
LURAY* NOT AVBL  
NEW MARKET* NOT AVBL  
STAUNTON* NOT AVBL  
WAYNESBORO* NOT AVBL  
 

 
 
WVZ021-048>050-054>055-230300-  
EASTERN WEST VIRGINIA PANHANDLE  
 
CITY SKY/WX TMP DP RH WIND PRES REMARKS
 
MARTINSBURG NOT AVBL  
PETERSBURG* NOT AVBL  
 

 
 
VAZ036>039-050-230300-  
CENTRAL FOOTHILLS  
 
CITY SKY/WX TMP DP RH WIND PRES REMARKS
 
CHARLOTTESVILL NOT AVBL  
CULPEPER* NOT AVBL  
ORANGE* NOT AVBL  
GORDONSVILLE* NOT AVBL  
WARRENTON* NOT AVBL  
 

 
 
VAZ055>057-230300-  
NORTH AND CENTRAL PIEDMONT  
 
CITY SKY/WX TMP DP RH WIND PRES REMARKS
 
FREDERICKSBRG* NOT AVBL  
 

 
 
NCZ024-NYZ072-PAZ021-071-VAZ022-071-230300-  
OTHER REGIONAL OBSERVATIONS  
 
CITY SKY/WX TMP DP RH WIND PRES REMARKS
 
NEW YORK CITY CLOUDY 42 35 76 MISG 29.80F  
PHILADELPHIA RAIN 40 38 93 SE5 29.75F  
 

 
 
ANZ530>537-230300-  
MARINE OBSERVATIONS  
 
STATION/POSITION TIME TEMP WIND PRES
 
AIR SEA DIR/SP/G  
(UTC) (F) (DEG/KT/KT) (MB)  
THOMAS PT LIGHT 0200 45 110/ 15/ 15 1005.3F  
TOLCHESTER 0130 43 CALM / 2 1006.3F  
GOOSES REEF 0148 42 43 150/ 25/ 35 N/A  
COVE POINT 0130 45 90/ 17/ 19 1006.3F  
BALT HARBOR 0130 44 42 120/ 1/ 2 N/A  
BALT KEY BRIDGE 0130 45 140/ 9/ 11 N/A  
ANNAPOLIS USNA 0130 45 47 100/ 5/ 7 1005.6F  
ANNAPOLIS CBIBS 0148 42 42 140/ 10/ 12 N/A  
WASH DC CHANNEL 0130 46 44 70/ 3/ 6 1004.6F  
DAHLGREN 0130 46 130/ 11/ 14 1004.6F  
LEWISETTA 0130 47 45 170/ 9/ 11 1006.5F  
SOLOMONS ISLAND 0130 48 44 160/ 6/ 8 1005.7F  
PINEY POINT 0130 160/ 14/ 16 N/A  
POTOMAC BUOY 0142 44 44 150/ 16/ 19 N/A  
CAMBRIDGE PIER 0130 47 42 170/ 9/ 13 1007.1F  
BISHOPS HEAD 0130 47 45 160/ 17/ 19 1006.8F  
CHESAPEAKE CITY 0130 41 42 80/ 2/ 3 1007.0F  
 

 
 
 
 
CLICK HERE TO GO TO PREVIOUS BULLETINS.

The Nexlab VA Page
The Nexlab MD Page
The Nexlab WV Page Main Text Page